National Oceanic Atmosphere Administration National Weather Service Headquarters National Weather Service Headquarters
NOAA logo WFO Anchorage Scalable transition graphic NWS logo
Transition from title bar to navgation bar   Aviation Weather 07 AKDT 
blankspace Home   |   Mobile   |   Social Media   |   Mesonet   |   Surface Map   |   Radar   |   Submit Storm Reports   |   News =15 GMT 

LocalForecast by City, St or Zip Code

spacer

Forecasts/Products
  Public
  Forecast Discussion
    - With Glossary
  Aviation
  Marine
  Hydrology(RFC)
  Rivers & Lakes AHPS
  Ice Desk
  TV Weather
  Fire Weather
  Avalanche
  Travel 511
  Graphical
  xml logo RSS Feeds
  Marine FTPMail

spacer

Data
  Mesonet
  Model Graphics
  Local Model
  Observations
  Marine Obs
  Satellite/Radar
  Vent Factor
  Soaring Index
  Weather Links

spacer

Climate
  PAFC Climate
  Interactive Climate
  PAFC Records
  Local
  National
  More

spacer

Outreach
  About Us
  Community Outreach
  Kids' Page
  Tour/Speaker Request
  Weather Classroom
  Social Media

spacer

Reports
  COOP Observers
  Local Storm Reports
  Spotter Page
  Submit a Storm Report

spacer

Miscellaneous
  Archived Alaska Weather Stories
  Student Career Opportunities
  Research Papers

spacer

Print Friendly/
Low Bandwidth

  Public Forecasts
  Marine Forecasts

spacer

Contact Us
  mailto pafcweb

spacer

Facebook Follow the National Weather Service in Alaska on Twitter
USA.gov is the U.S. government's official web portal to all federal, state and local government web resources and services.


 ICAO ID:   AAWU Graphics

Internet access to TAFs and METAR observations is for planning purposes only. We can not guarantee the timeliness of internet products. Before flying please get a formal pilot briefing (1-800-992-7433) and ALWAYS file a Flight Plan!Pilot briefings are provided to licensed aircraft pilots, ONLY! Others may not use the above number to obtain weather information.

Check out the Key to TAFs and METARs for help with decoding the information.

A 12 hour summary of TAFs can be found here.

PAFA TAF
PAFA 301539Z 3016/3118  26008KT P6SM VCSH FEW005 SCT025
      OVC060
     FM301900 25005KT P6SM VCSH BKN035 OVC080
     FM310800 VRB03KT P6SM SCT040 BKN090
     FM311200 VRB03KT 5SM BCFG SCT005 BKN060=




METAR PAFA 301453Z 27008G14KT 10SM FEW021 OVC090 03/01 A2943 RMK AO2
     SLP972 T00280006 53007=
METAR PAFA 301453Z 27008G14KT 10SM FEW021 OVC090 03/01 A2943=
METAR PAFA 301353Z 25006KT 10SM SCT021 OVC090 03/01 A2942 RMK AO2
 SLP968 T00330011=
METAR PAFA 301353Z 25006KT 10SM SCT021 OVC090 03/01 A2942=
METAR PAFA 301253Z 26006KT 10SM SCT021 OVC085 04/01 A2941 RMK AO2 SLP965
     T00390011=
METAR PAFA 301253Z 26006KT 10SM SCT021 OVC085 04/01 A2941=
SPECI PAFA 301248Z 26006KT 10SM SCT021 OVC085 04/01 A2941 RMK AO2=
PAFA 301248Z 26006KT 10SM SCT021 OVC085 04/01 A2941=
METAR PAFA 301153Z 27003KT 10SM BKN019 OVC060 04/02 A2940 RMK AO2
 SLP960 60006 70014 T00390017 10061 20033 53008=
METAR PAFA 301153Z 27003KT 10SM BKN019 OVC060 04/02 A2940=


National Weather Service
Anchorage Forecast Office
6930 Sand Lake Road
Anchorage, Ak 99502
(907) 266-5105 M-F/7-5pm
About Us
Career Opportunities
Glossary
Disclaimer
Privacy Policy
Credits
Alaska Weather Information Line:
1-800-472-0391